AirNav   TITAN Aviation Fuels
 
 944 users online  

KJRB Downtown Manhattan/Wall Street Heliport
New York, New York, USA

GOING TO NEW YORK?


FAA INFORMATION EFFECTIVE 19 MAY 2022

Location

FAA Identifier: JRB
Lat/Long: 40-42-04.3690N 074-00-32.5020W
40-42.072817N 074-00.541700W
40.7012136,-74.0090283
(estimated)
Elevation: 7 ft. / 2 m (estimated)
Variation: 13W (2010)
From city: 3 miles SE of NEW YORK, NY
Time zone: UTC -4 (UTC -5 during Standard Time)
Zip code: 10004

Heliport Operations

Heliport use: Open to the public
Activation date: 11/1972
Control tower: no
ARTCC: NEW YORK CENTER
FSS: NEW YORK FLIGHT SERVICE STATION
NOTAMs facility: ISP (NOTAM-D service available)
Attendance: SAT 0700-1900, ALL SUN 0700-1700, ALL MON-FRI 0700-2200
ATTENDANCE EARLY HRS HOL & WKND SKEDS REQUIRES 24 HRS NOTICE CALL 212-248-7240.
Wind indicator: lighted
Segmented circle: no
Lights: SS-SR
Landing fee: yes

Heliport Communications

CTAF/UNICOM: 123.05
WX AWOS-3PT: 128.175 (212-425-1534)
NEW YORK APPROACH: 120.8
NEW YORK DEPARTURE: 120.8
WX ASOS at EWR (7 nm W): PHONE 973-621-2892
WX ASOS at LGA (8 nm NE): PHONE 718-672-6317
WX ASOS at TEB (9 nm N): PHONE 201-393-0855
WX ASOS at JFK (11 nm E): 128.725 (718-656-0956)
WX AWOS-3 at LDJ (12 nm SW): 124.025 (908-862-7383)
WX ASOS at CDW (16 nm NW): 135.5 (973-575-4417)
WX AWOS-3 at MMU (19 nm W): PHONE 973-290-0135

Nearby radio navigation aids

VOR radial/distance  VOR name  Freq  Var
CRIr327/7.5CANARSIE VOR/DME112.3011W
LGAr244/8.1LA GUARDIA VOR/DME113.1012W
TEBr176/9.2TETERBORO VOR/DME108.4011W
JFKr303/11.6KENNEDY VOR/DME115.9012W
COLr027/24.4COLTS NECK VOR/DME115.4011W
DPKr272/32.5DEER PARK VOR/DME117.7012W
SAXr143/32.6SPARTA VORTAC115.7011W
SBJr088/34.1SOLBERG VOR/DME112.9010W
RBVr047/37.3ROBBINSVILLE VORTAC113.8010W
BWZr110/37.4BROADWAY VOR/DME114.2011W
CMKr221/39.8CARMEL VOR/DME116.6012W

 
NDB name  Hdg/Dist  Freq  Var  ID
TORBY150/8.421412WTE - .
CHATHAM110/19.325413WCAT -.-. .- -

Heliport Services

Fuel available: A
Airframe service: NONE
Powerplant service: NONE
Bottled oxygen: NONE
Bulk oxygen: NONE

Runway Information

Helipad H1

Dimensions: 62 x 62 ft. / 19 x 19 m
Surface: concrete, in good condition
Weight bearing capacity: 
Single wheel: 50.0
Runway edge lights: PERI
Latitude: 40-42.072817N
Longitude: 074-00.541700W
Elevation: 7.0 ft.
Traffic pattern: leftleft
Markings: basic, in good condition

Heliport Ownership and Management from official FAA records

Ownership: Publicly-owned
Owner: ECONOMIC DEVELOPMENT CORP
110 WILLIAM ST
NEW YORK, NY 10038
Phone 212-248-7240
Manager: MR. BRIAN TOLBERT
PIER 6 EAST RIVER
NEW YORK, NY 10004
Phone 212-248-7240
SAKER AVIATION

Heliport Operational Statistics

Aircraft operations: avg 86/day *
85% air taxi
14% transient general aviation
<1% military
* for 12-month period ending 30 April 2018

Additional Remarks

NO FLTS OR APCHS OVER FDR DRIVE; TWO-WAY RDO RQRD.
BIRDS ON & INVOF HELIPORT.
BOATS MAY NAVIGATE IN WATER ALONG HELIPORT PIER.
13 HELICOPTER PARKING SPACES WITH ADDITIONAL TRANSIENT POSITIONS AVBL. FIRE STAND PIPES ON SITE.
FOR CD CTC NEW YORK APCH AT 516-683-2849.

Instrument Procedures

NOTE: All procedures below are presented as PDF files. If you need a reader for these files, you should download the free Adobe Reader.

NOT FOR NAVIGATION. Please procure official charts for flight.
FAA instrument procedures published for use from 19 May 2022 at 0901Z to 16 June 2022 at 0900Z.

NOTE: Special Take-Off Minimums/Departure Procedures apply   download (442KB)

Other nearby airports with instrument procedures:

6N5 - East 34th Street Heliport (3 nm NE)
KJRA - West 30th St Heliport (3 nm N)
KEWR - Newark Liberty International Airport (7 nm W)
KLGA - LaGuardia Airport (8 nm NE)
KTEB - Teterboro Airport (9 nm N)
KJFK - John F Kennedy International Airport (11 nm E)
KLDJ - Linden Airport (12 nm SW)
KCDW - Essex County Airport (16 nm NW)
KMMU - Morristown Municipal Airport (19 nm W)
 
Loc | Ops | Rwys | IFR | FBO | Links
Com | Nav | Svcs | Stats | Notes
Area around KJRB (Downtown Manhattan/Wall Street Heliport)
 
Road maps at: MapQuest Bing Google
 
Aerial photo
WARNING: Photo may not be current or correct
Aerial photo of KJRB (Downtown Manhattan/Wall Street Heliport)
Photo by New York Jet Charter Flights by GiveJet jetcharterrewards.com/newyork.htm
Photo taken 01-May-2014
looking northeast.

Do you have a better or more recent aerial photo of Downtown Manhattan/Wall Street Heliport that you would like to share? If so, please send us your photo.

 
Sectional chart

 
Airport distance calculator
Flying to Downtown Manhattan/Wall Street Heliport? Find the distance to fly.

From to KJRB

Sunrise and sunset
Times for 26-May-2022
 Local
(UTC-4)
 Zulu
(UTC)
Morning civil twilight04:5908:59
Sunrise05:3109:31
Sunset20:1500:15
Evening civil twilight20:4700:47

Current date and time
Zulu (UTC)  27-May-2022 02:35:27
Local (UTC-4)  26-May-2022 22:35:27
 
METAR
KJRB 270156Z AUTO 17004KT 10SM BKN027 OVC039 18/14 A3014 RMK AO2 SLP206 T01830144
KNYC 
5nm N 
270151Z AUTO VRB03KT 10SM OVC041 19/14 A3015 RMK AO2 SLP202 T01890139 $
KEWR 
7nm W 
270154Z 15006KT 10SM BKN027 BKN032 OVC041 21/14 A3012 RMK AO2 T02060144
KLGA 
8nm NE 
270151Z 17009KT 10SM BKN042 18/14 A3013 RMK AO2 SLP203 T01830139
KTEB 
10nm N 
270151Z 17007KT 10SM OVC042 19/14 A3011 RMK AO2 SLP196 T01940139
KJFK 
12nm E 
270151Z 15005KT 10SM FEW025 OVC042 17/15 A3015 RMK AO2 SLP209 T01670150
KLDJ 
12nm SW 
262135Z AUTO 15007KT 10SM OVC032 20/14 A3016 RMK AO2 T02010139
KCDW 
17nm NW 
270153Z 16005KT 10SM SCT034 OVC043 21/13 A3012 RMK AO2 SLP205 T02110133
KMMU 
19nm W 
270150Z 16004KT 10SM OVC029 20/15 A3012
TAF
KEWR 
7nm W 
261956Z 2620/2724 13010KT P6SM BKN035 FM270000 17007KT P6SM SCT007 BKN025 FM270500 18008KT 3SM BR OVC007 FM270900 18008KT 1SM -DZ BR OVC004 FM271200 18009KT 4SM BR OVC007 FM271500 18010KT P6SM BKN015 PROB30 2718/2721 3SM SHRA FM272100 17017KT 4SM BR OVC007 PROB30 2721/2724 4SM -TSRA OVC007CB
KLGA 
8nm NE 
261956Z 2620/2724 16015KT P6SM BKN035 BKN060 BKN250 FM270000 17009KT P6SM SCT007 BKN025 FM270600 18008KT 3SM BR OVC007 FM270900 19009KT 1SM -DZ BR OVC004 FM271200 18011KT 4SM BR OVC007 FM271500 18013KT P6SM BKN015 FM272100 17017KT 4SM BR OVC007 PROB30 2721/2724 4SM -TSRA OVC007CB
KTEB 
10nm N 
262106Z 2621/2724 13011KT P6SM BKN035 FM270000 15005KT P6SM SCT007 BKN025 FM270500 18004KT 3SM BR OVC007 FM270900 18005KT 1SM -DZ BR OVC003 FM271200 18007KT 4SM BR OVC007 FM271500 18009KT P6SM BKN015 PROB30 2715/2718 3SM SHRA FM272100 17017KT 4SM BR OVC007 PROB30 2721/2724 4SM -TSRA OVC007CB
KJFK 
12nm E 
261956Z 2620/2724 16013KT P6SM FEW020 BKN035 BKN250 FM270000 17009KT P6SM SCT007 BKN025 FM270600 19008KT 3SM BR OVC007 FM270900 18009KT 1SM -DZ BR OVC004 FM271200 18012KT 4SM BR OVC007 FM271500 18015KT P6SM BKN015 FM272100 17017KT 4SM BR OVC007 PROB30 2721/2724 4SM -TSRA OVC007CB
NOTAMs
Click for the latest NOTAMs
NOTAMs are issued by the DoD/FAA and will open in a separate window not controlled by AirNav.

 

 
 

FBO, Fuel Providers, and Aircraft Ground Support

  
 Business Name 
 
 Contact 
 
 Services / Description 
 
Fuel Prices
 
Comments
  
 Saker Aviation Services, Inc.
212-248-7240
212-248-7241
[web site]
[email]

Like us on facebook Follow us on twitter
Airport management, Aviation fuel, Aircraft parking (ramp or tiedown), Passenger terminal and lounge, Aerial tours / aerial sightseeing, Aircraft charters, ...

More info about Saker Aviation Services, Inc.
Avfuel
Jet A
FS $11.43 
 Updated 18-May-2022
 
   write
FS=Full service
Update Fuel Prices
 

Would you like to see your business listed on this page?

 If your business provides an interesting product or service to pilots, flight crews, aircraft, or users of the Downtown Manhattan/Wall Street Heliport, you should consider listing it here.  To start the listing process, click on the button below
 
Add a business
 

Other Pages about Downtown Manhattan/Wall Street Heliport

www.panynj.gov/...
www.downtownmanhattanheliport.com
 
Update a link
 
Copyright © AirNav, LLC. All rights reserved. Privacy Policy  Contact